Home   Weather   Frechen   Past weeks

Flag for Germany Past Weather in Frechen, North Rhine-Westphalia, Germany — Yesterday and Last 2 Weeks

Now
28 °F

Passing clouds.


Feels Like: 23 °F
Forecast: 28 / 35 °F
Wind: 5 mph from West

Location: Noervenich

Current Time: Jan 23, 2017 at 7:58:11 am

Latest Report: Jan 23, 2017 at 7:20 am


Visibility: 5 mi

Pressure: 30.33 "Hg

Humidity: 93%

Dew Point: 27 °F

Location of FrechenLocation

Past Weather in Frechen — Graph

°F

Frechen Temperature Yesterday

Maximum temperature yesterday: 34 °F (at 2:20 pm)
Minimum temperature yesterday: 16 °F (at 8:20 am)
Average temperature yesterday: 24 °F

High & Low Weather Summary for the Past Weeks

 TemperatureHumidityPressure
High46 °F (Jan 11, 12:20 pm)100% (Jan 8, 6:09 am)30.69 "Hg (Jan 8, 6:09 am)
Low16 °F (Jan 20, 5:20 am)41% (Jan 20, 2:20 pm)28.94 "Hg (Jan 13, 1:20 am)
Average32 °F85%30.15 "Hg
* Reported Jan 8 6:09 am — Jan 23 6:20 am, Frechen, Weather by CustomWeather, © 2017

Note: Actual official high and low records may vary slightly from our data, if they occured in-between our weather recording intervals... More about our weather records

Advertising

Frechen Weather History for the Previous 24 Hours

Scroll right to see more
 ConditionsComfort  
Time TempWeatherWind HumidityBarometerVisibility
6:20 am
Mon, Jan 23
27 °FPassing clouds.5 mph93%30.30 "HgN/A
5:20 am23 °FPassing clouds.6 mph93%30.30 "HgN/A
4:20 am23 °FPassing clouds.3 mph86%30.30 "HgN/A
3:20 am23 °FPassing clouds.6 mph86%30.30 "HgN/A
2:20 am23 °FPassing clouds.6 mph86%30.30 "HgN/A
1:20 am25 °FPassing clouds.6 mph86%30.30 "HgN/A
12:20 am25 °FPassing clouds.8 mph86%30.30 "HgN/A
11:20 pm
Sun, Jan 22
25 °FPassing clouds.6 mph86%30.30 "HgN/A
10:20 pm19 °FPassing clouds.2 mph93%30.30 "HgN/A
9:20 pm23 °FPassing clouds.1 mph86%30.30 "HgN/A
8:20 pm25 °FPassing clouds.1 mph86%30.30 "HgN/A
7:20 pm27 °FPassing clouds.5 mph80%30.30 "HgN/A
6:20 pm27 °FPassing clouds.1 mph80%30.30 "HgN/A
5:20 pm28 °FPassing clouds.3 mph74%30.27 "HgN/A
4:20 pm32 °FPassing clouds.3 mph64%30.27 "HgN/A
3:20 pm34 °FPassing clouds.1 mph60%30.27 "HgN/A
2:20 pm34 °FPassing clouds.2 mph60%30.27 "HgN/A
1:20 pm32 °FPassing clouds.2 mph64%30.30 "HgN/A
12:20 pm28 °FPassing clouds.2 mph74%30.30 "HgN/A
11:20 am27 °FPassing clouds.2 mph74%30.33 "HgN/A
10:20 am23 °FPassing clouds.2 mph80%30.33 "HgN/A
9:20 am18 °FPassing clouds.3 mph93%30.33 "HgN/A
8:20 am16 °FPassing clouds.5 mph93%30.33 "HgN/A
7:20 am18 °FCold.5 mph86%30.33 "HgN/A
Weather by CustomWeather, © 2017

See weather overviewHow to use our weather pages